Location: *
(45.9500°N, 9.0833°E)
Time: 18:58:39
(UTC+00:00)

Vanguard 2 Rocket - Pass Details

Date: 16 June 2021
Orbit: 555 x 3325 km, 32.9° (Epoch: 30 July)

Event Time Altitude Azimuth Distance (km) Brightness Sun altitude
Rises 22:55:07 0° 264° (W) 6,672 11.3 -20.3°
Reaches altitude 10° 23:00:29 10° 258° (WSW) 5,262 10.7 -20.5°
Maximum altitude 23:12:50 38° 199° (SSW) 2,494 8.6 -20.6°
Enters shadow 23:16:26 29° 160° (SSE) 2,501 8.6 -20.6°
Drops below altitude 10° 23:20:22 10° 134° (SE) 3,207 - -20.7°
Sets 23:22:50 0° 125° (SE) 3,882 - -20.7°
